This is the latest recevied weather packets stored in our database for station/object VK1KCM-5. If no packets are shown the sender has not sent any weather packets the latest 10 day(s).
| Time | Temp. | Humidity | Pressure | Rain* | Wind** | Luminosity | Snow |
|---|---|---|---|---|---|---|---|
| 1787452453 | 15.56° C | 61% | 1022.7 hPa | 0 mm | - | - | - |
| 1787452213 | 15° C | 64% | 1023.2 hPa | 0 mm | - | - | - |
| 1787451973 | 15° C | 64% | 1023.2 hPa | 0 mm | - | - | - |
| 1787451713 | 15° C | 61% | 1023.2 hPa | 0 mm | - | - | - |
| 1787451458 | 15° C | 62% | 1023.3 hPa | 0 mm | - | - | - |
| 1787451188 | 13.89° C | 64% | 1023.8 hPa | 0 mm | - | - | - |
| 1787450918 | 13.89° C | 66% | 1023.7 hPa | 0 mm | - | - | - |
| 1787450633 | 13.33° C | 66% | 1024 hPa | 0 mm | - | - | - |
| 1787450383 | 13.33° C | 67% | 1023.9 hPa | 0 mm | - | - | - |
| 1787450113 | 13.33° C | 67% | 1024 hPa | 0 mm | - | - | - |
| 1787449853 | 13.33° C | 67% | 1024 hPa | 0 mm | - | - | - |
| 1787449583 | 13.89° C | 66% | 1024.2 hPa | 0 mm | - | - | - |
| 1787449338 | 13.33° C | 67% | 1024.1 hPa | 0 mm | - | - | - |
| 1787449058 | 13.89° C | 67% | 1024.4 hPa | 0 mm | - | - | - |
| 1787448773 | 13.33° C | 66% | 1024.4 hPa | 0 mm | - | - | - |
| 1787448479 | 13.33° C | 67% | 1024.6 hPa | 0 mm | - | - | - |
| 1787448203 | 12.78° C | 67% | 1024.4 hPa | 0 mm | - | - | - |
| 1787447943 | 12.22° C | 69% | 1025 hPa | 0 mm | - | - | - |
| 1787447693 | 12.22° C | 67% | 1025.1 hPa | 0 mm | - | - | - |
| 1787447436 | 12.22° C | 71% | 1024.9 hPa | 0 mm | - | - | - |
| 1787447178 | 12.22° C | 71% | 1024.9 hPa | 0 mm | - | - | - |
| 1787446883 | 12.22° C | 69% | 1025 hPa | 0 mm | - | - | - |
| 1787446603 | 12.22° C | 70% | 1025 hPa | 0 mm | - | - | - |
| 1787446333 | 12.22° C | 72% | 1025.2 hPa | 0 mm | - | - | - |
| 1787446038 | 11.67° C | 74% | 1025.6 hPa | 0 mm | - | - | - |
* Rain latest hour (hover to see other rain measurements)
** Current wind speed in m/s (hover to see current wind gust speed)